Flag for U.S.A. Weather past 2 weeks in Youngstown, Ohio, U.S.A.

Now
20 °F

Light snow. Mostly cloudy.


Feels Like: 8 °F
Forecast: 11 / 28 °F
Wind: 12 mph from West

Location: Youngstown-Warren Regional Airport

Current Time: Mar 2, 2015 at 6:19:24 AM

Latest Report: Mar 2, 2015 at 5:51 AM


Visibility: 5 mi

Pressure: 30.32 "Hg

Humidity: 85%

Dew point: 16 °F

Location of YoungstownLocation

Historic Weather in Youngstown — Graph

°F

Youngstown temperature yesterday

Maximum temperature yesterday: 32 °F (at 1:51 PM)
Minimum temperature yesterday: 17 °F (at 2:51 AM)
Average temperature yesterday: 26 °F

Past Weeks' High & Low Weather Summary

 TemperatureHumidityPressure
High32 °F (Mar 1, 1:51 PM)96% (Feb 22, 5:51 AM)30.84 "Hg (Feb 22, 5:51 AM)
Low-14 °F (Feb 20, 7:51 AM)29% (Feb 28, 2:51 PM)29.71 "Hg (Feb 18, 2:59 PM)
Average10 °F68%30.23 "Hg
* Reported Feb 15 4:51 AM — Mar 2 4:51 AM, Youngstown, Weather by CustomWeather, © 2015

Note: Actual official high and low records may vary slightly from our data, if they occured in-between our weather recording intervals... More about our weather records

Advertising

Youngstown weather history for previous 24 hours

 ConditionsComfort  
Time TempWeatherWind HumidityBarometerVisibility
4:51 AM
Mon, Mar 2
21 °FLight snow. Overcast.12 mph81%30.28 "Hg2 mi
3:51 AM22 °FLight snow. Overcast.13 mph78%30.25 "Hg5 mi
2:51 AM22 °FLight snow. Overcast.14 mph85%30.24 "Hg5 mi
1:51 AM24 °FLight snow. Mostly cloudy.15 mph81%30.23 "Hg7 mi
12:51 AM25 °FLight snow. Overcast.12 mph85%30.23 "Hg7 mi
11:51 PM
Sun, Mar 1
26 °FPassing clouds.13 mph84%30.22 "Hg10 mi
10:51 PM28 °FMostly cloudy.10 mph85%30.22 "Hg9 mi
9:51 PM29 °FMostly cloudy.12 mph85%30.20 "Hg8 mi
8:51 PM30 °FIce fog.6 mph89%30.21 "Hg5 mi
7:51 PM30 °FLight snow. Ice fog.8 mph92%30.22 "Hg4 mi
6:51 PM31 °FLight snow. Ice fog.6 mph92%30.22 "Hg2 mi
5:51 PM31 °FLight snow. Ice fog.5 mph96%30.22 "Hg1 mi
4:51 PM32 °FLight snow. Ice fog.8 mph92%30.24 "Hg1 mi
3:51 PM32 °FLight snow. Ice fog.7 mph88%30.25 "Hg1 mi
2:51 PM32 °FLight snow. Ice fog.7 mph88%30.25 "Hg1 mi
1:51 PM32 °FLight snow. Ice fog.8 mph85%30.28 "Hg5 mi
12:51 PM31 °FLight snow. Ice fog.8 mph85%30.32 "Hg2 mi
11:51 AM29 °FLight snow. Ice fog.8 mph89%30.35 "Hg1 mi
10:51 AM27 °FLight snow. Ice fog.6 mph89%30.38 "Hg2 mi
9:51 AM26 °FLight snow. Ice fog.7 mph84%30.40 "Hg2 mi
8:51 AM23 °FLight snow. Ice fog.5 mph88%30.41 "Hg1 mi
7:51 AM21 °FLight snow. Ice fog.3 mph88%30.42 "Hg1 mi
6:53 AM20 °FLight snow. Ice fog.5 mph89%30.37 "Hg1 mi
Weather by CustomWeather, © 2015

See weather overviewHow to use our weather pages